Weather home | Your neighborhood | Marine | Radar | Hurricane | Almanac

Daily weather history


Statistical History for Thursday, September 14, 2017

St. Petersburg Airport, FL


  Actual Average Record
Temperature
Mean Temperature -  
Max Temperature 88 °F 93 °F (1989)
Min Temperature 75 °F 68 °F (1956)
Cooling Degree Days    
Growing Degree Days 34 (Base - )  
Moisture
Dew Point   
Average Humidity    
Maximum Humidity    
Minimum Humidity    
Precipitation
Precipitation - - ()
Wind
Wind Speed   
Max Wind Speed   
Max Gust Speed   
Visibility   
Events   
Averages and records for this station are not official NWS values.
Key: T is trace of precipitation, MM is missing value
Source: NWS Daily Summary
Seasonal Weather Averages
Time(EDT)TemperatureDew PointHumidity Sea Level Pressure Visibility Wind DirectionWind SpeedGust SpeedPrecipitationEventsConditions
12:53 AM 78.1 °F 75.0 °F 90% 29.95 in 10.0 miles Calm Calm - N/A   Clear
1:53 AM 78.1 °F 75.0 °F 90% 29.94 in 10.0 miles Calm Calm - N/A   Clear
2:53 AM 78.1 °F 75.0 °F 90% 29.94 in 10.0 miles Calm Calm - N/A   Clear
3:53 AM 78.1 °F 75.0 °F 90% 29.94 in 10.0 miles Calm Calm - N/A   Clear
4:53 AM 78.1 °F 75.9 °F 93% 29.93 in 10.0 miles Calm Calm - N/A   Clear
5:53 AM 78.1 °F 75.9 °F 93% 29.95 in 10.0 miles East 4.6 mph - N/A   Mostly Cloudy
6:21 AM 79.0 °F 75.9 °F 90% 29.95 in 10.0 miles East 4.6 mph - N/A   Mostly Cloudy
6:53 AM 78.1 °F 75.0 °F 90% 29.96 in 10.0 miles ESE 4.6 mph - N/A Rain Light Rain
7:49 AM 78.8 °F 75.2 °F 89% 29.97 in 10.0 miles East 4.6 mph - N/A   Mostly Cloudy
7:53 AM 79.0 °F 75.0 °F 88% 29.97 in 10.0 miles East 4.6 mph - N/A   Scattered Clouds
8:07 AM 79.0 °F 75.9 °F 90% 29.97 in 10.0 miles ESE 5.8 mph - N/A   Mostly Cloudy
8:22 AM 80.1 °F 75.9 °F 87% 29.98 in 10.0 miles ESE 5.8 mph - N/A   Scattered Clouds
8:53 AM 81.0 °F 75.0 °F 82% 29.99 in 10.0 miles ESE 4.6 mph - N/A   Overcast
9:25 AM 81.0 °F 75.9 °F 85% 29.99 in 10.0 miles ESE 5.8 mph - N/A   Overcast
9:53 AM 82.0 °F 75.9 °F 82% 30.00 in 10.0 miles ESE 8.1 mph - N/A   Overcast
10:53 AM 84.0 °F 75.9 °F 76% 30.01 in 10.0 miles East 8.1 mph - N/A   Clear
11:53 AM 87.1 °F 75.9 °F 69% 30.00 in 10.0 miles ENE 10.4 mph - N/A   Mostly Cloudy
12:53 PM 89.1 °F 75.9 °F 65% 29.98 in 10.0 miles ENE 10.4 mph - N/A   Mostly Cloudy
1:53 PM 89.1 °F 75.9 °F 65% 29.97 in 10.0 miles SE 8.1 mph - N/A   Overcast
2:53 PM 90.0 °F 75.0 °F 61% 29.94 in 10.0 miles Variable 4.6 mph - N/A   Mostly Cloudy
3:53 PM 90.0 °F 75.0 °F 61% 29.93 in 10.0 miles NNE 6.9 mph - N/A   Scattered Clouds
4:30 PM 89.1 °F 73.9 °F 61% 29.93 in 10.0 miles NW 10.4 mph - N/A Thunderstorm Overcast
4:53 PM 86.0 °F 75.9 °F 72% 29.94 in 9.0 miles East 6.9 mph - N/A Thunderstorm Overcast
5:03 PM 82.0 °F 73.0 °F 74% 29.94 in 10.0 miles ENE 16.1 mph 26.5 mph N/A Thunderstorm Thunderstorm
5:18 PM 82.0 °F 73.0 °F 74% 29.95 in 10.0 miles East 11.5 mph 24.2 mph N/A Thunderstorm Overcast
5:53 PM 82.0 °F 73.9 °F 76% 29.95 in 10.0 miles East 6.9 mph 18.4 mph N/A Thunderstorm Overcast
6:01 PM 82.0 °F 73.0 °F 74% 29.95 in 10.0 miles ESE 8.1 mph - N/A   Overcast
6:53 PM 81.0 °F 73.9 °F 79% 29.95 in 10.0 miles Calm Calm - N/A   Partly Cloudy
7:53 PM 80.1 °F 75.0 °F 85% 29.96 in 10.0 miles Calm Calm - N/A   Partly Cloudy
8:53 PM 80.1 °F 75.0 °F 85% 29.97 in 10.0 miles ESE 3.5 mph - N/A   Clear
9:53 PM 80.1 °F 75.0 °F 85% 29.97 in 10.0 miles Calm Calm - N/A   Clear
10:53 PM 80.1 °F 75.9 °F 87% 29.98 in 10.0 miles East 4.6 mph - N/A   Clear
11:53 PM 81.0 °F 77.0 °F 88% 29.98 in 6.0 miles ESE 15.0 mph 19.6 mph N/A   Clear
ADVERTISEMENT
Enter city or zip code to search weather conditions:


  • 490 First Avenue South
  • St. Petersburg, FL 33701
  • 727-893-8111